Simultaneous Nadir Overpasses (SNOs) Predictions

Prediction of SNOs between GOES-17 and METOP-B Satellite Orbit:

Table of predicted SNOs for the next 14.0 days since TLE Epoch: 4/6/2024
Index Date Time (GOES-17) GOES-17 Lat,Lon METOP-B Lat,Lon Distance(km) Time Diff (sec)
1 04/07/2024 16:21:45 0.01,-104.68 -0.15,-104.10 66.34 80
2 04/09/2024 04:40:45 -0.01,-104.69 -0.91,-108.70 457.33 80
3 04/10/2024 04:17:25 -0.01,-104.69 0.22,-103.71 112.05 80
4 04/11/2024 16:36:17 0.01,-104.71 0.80,-108.28 407.56 80
5 04/12/2024 16:18:17 0.01,-104.71 -0.33,-103.30 161.88 80
6 04/14/2024 04:37:16 -0.00,-104.72 -0.71,-107.90 362.00 80
7 04/15/2024 04:13:57 0.00,-104.73 0.42,-102.91 207.28 80
8 04/16/2024 16:32:48 -0.01,-104.74 0.59,-107.49 312.41 80
9 04/17/2024 16:14:48 -0.01,-104.75 -0.49,-102.49 257.35 80
10 04/19/2024 04:33:48 0.01,-104.77 -0.49,-107.10 265.64 80
